Regional Weather Roundup
Issued by NWS

Home | Current Version | Previous Version | Graphics & Text | Print | Product List | Glossary On
Versions: 1 2 3 4 5 6 7 8 9 10 11 12 13 14 15 16 17 18 19 20 21 22 23 24 25 26 27 28 29 30 31 32 33 34 35 36 37 38 39 40 41 42 43 44 45 46 47 48 49 50
000
ASUS43 KLOT 161500
RWRIL

ILLINOIS REGIONAL WEATHER ROUNDUP
NATIONAL WEATHER SERVICE CHICAGO/ROMEOVILLE IL
1000 AM CDT WED APR 16 2014

NOTE: "FAIR" INDICATES FEW OR NO CLOUDS BELOW 12,000 FEET WITH NO
SIGNIFICANT WEATHER AND/OR OBSTRUCTIONS TO VISIBILITY.

* THESE STATIONS ARE NOT UNDER NWS QUALITY CONTROL. THEY ALSO MAY NOT
  REPORT WEATHER SUCH AS PRECIPITATION OR FOG.

ILZ001-002-007-009-015-016-024-161600-
NORTHWEST ILLINOIS

CITY           SKY/WX    TMP DP  RH WIND       PRES   REMARKS
MOLINE         PTSUNNY   44  25  47 S21G26    30.14F
STERLING*      PTSUNNY   43  28  56 SE15G21   30.20F
$$

ILZ003-004-008-010-011-017-018-161600-
NORTH CENTRAL ILLINOIS

CITY           SKY/WX    TMP DP  RH WIND       PRES   REMARKS
ROCKFORD       CLOUDY    39  26  59 S17G26    30.25S WCI  30
$$

ILZ005-006-012>014-019>023-161600-
NORTHEAST ILLINOIS

CITY           SKY/WX    TMP DP  RH WIND       PRES   REMARKS
CHICAGO-OHARE  CLOUDY    41  22  46 S18       30.29F
CHICAGO-MIDWAY PTSUNNY   40  22  48 S13G22    30.31S
AURORA         PTSUNNY   41  26  55 S17G23    30.28S
WAUKEGAN       MOSUNNY   38  23  55 SE14      30.29S WCI  30
DUPAGE AIRPORT PTSUNNY   40  25  55 SE17      30.28S
WHEELING       MOSUNNY   41  25  53 S17       30.31S
NORTHERLY ISL    N/A     39  23  53 S15         N/A  WCI  31
$$

LMZ740>746-161600-
SOUTHERN LAKE MICHIGAN

STATION/POSITION SKY/WX   TEMP    WIND        PRES    VSBY  WAVE
                          AIR SEA DIR/SP/G                  HT/PER
                          (F)     (DEG/KT/KT) (MB)    (MI)  (FT/S)
WAUKEGAN HARBOR            38     150/ 13/ 16 1027.1S
HARRISON CRIB              35     170/ 20/ 24   N/A
BURNHAM HARBOR             38     150/ 13/ 15   N/A
CALUMET HARBOR             37     140/ 12/ 15 1027.5R
MICHIGAN CITY              35     130/ 14/ 19   N/A
$$

ILZ025>027-034>036-040-047-049-050-058-095>099-161600-
WEST-CENTRAL ILLINOIS

CITY           SKY/WX    TMP DP  RH WIND       PRES   REMARKS
QUINCY         MOSUNNY   46  25  43 S20G29    30.14S
$$

ILZ028>032-037-038-041>044-048-051>054-059>061-161600-
CENTRAL ILLINOIS

CITY           SKY/WX    TMP DP  RH WIND       PRES   REMARKS
DECATUR        SUNNY     43  26  51 S18G26    30.30S
PEORIA         SUNNY     46  26  45 S22G31    30.22S
SPRINGFIELD    SUNNY     47  26  44 S23G31    30.25F
TAYLORVILLE    NOT AVBL
$$

ILZ033-039-045-046-055>057-062-063-161600-
EAST-CENTRAL ILLINOIS

CITY           SKY/WX    TMP DP  RH WIND       PRES   REMARKS
CHAMPAIGN      SUNNY     42  26  53 S20       30.31S
MATTOON        SUNNY     41  25  53 SE18      30.32R
$$

ILZ079-100>102-161600-
SOUTHWEST ILLINOIS

CITY           SKY/WX    TMP DP  RH WIND       PRES   REMARKS
ALTON          MOSUNNY   46  23  39 S16       30.26S
BELLEVILLE     SUNNY     46  27  48 SE16G25   30.28R
CAHOKIA*       SUNNY     44  27  51 S16G23    30.27S
$$

ILZ064>066-069>071-074>076-080>082-084>086-088>090-092>094-161600-
SOUTH-CENTRAL ILLINOIS

CITY           SKY/WX    TMP DP  RH WIND       PRES   REMARKS
CARBONDALE     SUNNY     44  24  45 SE13      30.32R
MARION         MOSUNNY   45  25  45 S14       30.34R
MT. VERNON     MOSUNNY   45  21  39 SE14      30.34R
$$

ILZ067-068-072-073-078-083-087-091-161600-
SOUTHEAST ILLINOIS

CITY           SKY/WX    TMP DP  RH WIND       PRES   REMARKS
ROBINSON*      SUNNY     44  29  55 SE13      30.37R
$$

ABBREVIATIONS USED IN REMARKS
   TC - TEMPERATURE IN CELSIUS
  WCI - WIND CHILL INDEX
   HX - HEAT INDEX
  VSB - VISIBILITY
$$




USA.gov is the U.S. government's official web portal to all federal, state and local government web resources and services.